• In Hungary
  • List of Countries
  • For 7 days
  • Water Temperature
  • Satellite Maps
  • Weather Map
  • News
  • Weather Widgets
  • user-avatar
    Login

    Hourly Weather Slawniowice

    Today, 23 July, Monday

    Time Temperature Precipitation Wind Pressure Humidity
    00:00 +18°C° 0 mm 2 mps 732 mmHg 84%
    01:00 +18°C° 0 mm 2 mps 732 mmHg 86%
    02:00 +18°C° 0 mm 2 mps 732 mmHg 86%
    03:00 +17°C° 0 mm 2 mps 732 mmHg 86%
    04:00 +17°C° 0 mm 2 mps 732 mmHg 86%
    05:00 +18°C° 0.1 mm 2 mps 732 mmHg 84%
    06:00 +19°C° 0.1 mm 3 mps 732 mmHg 82%
    07:00 +20°C° 0.1 mm 3 mps 733 mmHg 80%
    08:00 +21°C° 0.1 mm 3 mps 733 mmHg 74%
    09:00 +23°C° 0.1 mm 4 mps 733 mmHg 69%
    10:00 +25°C° 0.1 mm 4 mps 733 mmHg 63%
    11:00 +26°C° 0.1 mm 4 mps 733 mmHg 60%
    12:00 +27°C° 0.1 mm 4 mps 733 mmHg 57%
    13:00 +27°C° 0.1 mm 5 mps 733 mmHg 54%
    14:00 +27°C° 0 mm 5 mps 733 mmHg 54%
    15:00 +27°C° 0 mm 5 mps 733 mmHg 54%
    16:00 +27°C° 0 mm 5 mps 732 mmHg 55%
    17:00 +26°C° 0 mm 4 mps 733 mmHg 60%
    18:00 +25°C° 0 mm 3 mps 733 mmHg 66%
    19:00 +23°C° 0 mm 2 mps 733 mmHg 72%
    20:00 +21°C° 0 mm 2 mps 733 mmHg 74%
    21:00 +20°C° 0 mm 2 mps 733 mmHg 77%
    22:00 +20°C° 0 mm 1 mps 734 mmHg 80%
    23:00 +18°C° 0 mm 2 mps 734 mmHg 81%

    Tomorrow, 24 July, Tuesday

    Time Temperature Precipitation Wind Pressure Humidity
    00:00 +18°C° 0 mm 2 mps 734 mmHg 82%
    01:00 +17°C° 0 mm 2 mps 734 mmHg 84%
    02:00 +17°C° 0 mm 2 mps 734 mmHg 85%
    03:00 +17°C° 0 mm 2 mps 734 mmHg 86%
    04:00 +16°C° 0 mm 2 mps 734 mmHg 88%
    05:00 +18°C° 0 mm 2 mps 734 mmHg 84%
    06:00 +19°C° 0 mm 2 mps 734 mmHg 80%
    07:00 +21°C° 0 mm 3 mps 734 mmHg 77%
    08:00 +22°C° 0 mm 3 mps 734 mmHg 72%
    09:00 +24°C° 0 mm 3 mps 734 mmHg 67%
    10:00 +25°C° 0 mm 4 mps 734 mmHg 63%
    11:00 +26°C° 0 mm 4 mps 734 mmHg 60%
    12:00 +27°C° 0 mm 4 mps 734 mmHg 57%
    13:00 +27°C° 0 mm 4 mps 733 mmHg 54%
    14:00 +27°C° 0 mm 4 mps 733 mmHg 54%
    15:00 +27°C° 0 mm 4 mps 733 mmHg 53%
    16:00 +27°C° 0 mm 3 mps 733 mmHg 53%
    17:00 +26°C° 0 mm 3 mps 733 mmHg 59%
    18:00 +25°C° 0 mm 2 mps 733 mmHg 65%
    19:00 +23°C° 0 mm 2 mps 733 mmHg 70%
    20:00 +21°C° 0 mm 2 mps 733 mmHg 74%
    21:00 +20°C° 0 mm 2 mps 733 mmHg 77%
    22:00 +20°C° 0 mm 1 mps 733 mmHg 80%
    23:00 +19°C° 0 mm 1 mps 733 mmHg 82%

    Day after tomorrow, 25 July, Wednesday

    Time Temperature Precipitation Wind Pressure Humidity
    00:00 +19°C° 0 mm 1 mps 733 mmHg 84%
    01:00 +19°C° 0 mm 1 mps 733 mmHg 86%
    02:00 +18°C° 0 mm 1 mps 733 mmHg 88%
    03:00 +17°C° 0 mm 2 mps 733 mmHg 90%
    04:00 +17°C° 0 mm 2 mps 733 mmHg 91%
    05:00 +18°C° 0 mm 2 mps 733 mmHg 88%
    06:00 +20°C° 0 mm 2 mps 733 mmHg 84%
    07:00 +21°C° 0 mm 2 mps 733 mmHg 80%
    08:00 +23°C° 0.1 mm 2 mps 734 mmHg 75%
    09:00 +25°C° 0.1 mm 3 mps 734 mmHg 70%
    10:00 +26°C° 0.1 mm 3 mps 734 mmHg 65%
    11:00 +27°C° 0.2 mm 3 mps 733 mmHg 63%
    12:00 +27°C° 0.2 mm 3 mps 733 mmHg 60%
    13:00 +28°C° 0.2 mm 4 mps 733 mmHg 58%
    14:00 +28°C° 0.1 mm 4 mps 733 mmHg 57%
    15:00 +28°C° 0.1 mm 4 mps 733 mmHg 56%
    16:00 +28°C° 0.1 mm 4 mps 733 mmHg 56%
    17:00 +26°C° 0.1 mm 3 mps 733 mmHg 62%
    18:00 +25°C° 0.1 mm 3 mps 732 mmHg 68%
    19:00 +24°C° 0.1 mm 2 mps 732 mmHg 74%
    20:00 +21°C° 0 mm 2 mps 733 mmHg 77%
    21:00 +20°C° 0 mm 2 mps 733 mmHg 81%
    22:00 +19°C° 0 mm 2 mps 733 mmHg 85%
    23:00 +19°C° 0 mm 2 mps 733 mmHg 86%

    26 July, Thursday

    Time Temperature Precipitation Wind Pressure Humidity
    00:00 +18°C° 0 mm 2 mps 733 mmHg 86%
    01:00 +18°C° 0 mm 2 mps 733 mmHg 87%
    02:00 +18°C° 0 mm 2 mps 733 mmHg 89%
    03:00 +17°C° 0 mm 2 mps 733 mmHg 90%
    04:00 +17°C° 0 mm 2 mps 733 mmHg 91%
    05:00 +18°C° 0 mm 2 mps 733 mmHg 87%
    06:00 +19°C° 0 mm 2 mps 733 mmHg 83%
    07:00 +21°C° 0 mm 2 mps 734 mmHg 79%
    08:00 +22°C° 0.1 mm 3 mps 734 mmHg 76%
    09:00 +24°C° 0.1 mm 3 mps 734 mmHg 72%
    10:00 +25°C° 0.1 mm 4 mps 734 mmHg 69%
    11:00 +25°C° 0.8 mm 4 mps 733 mmHg 69%
    12:00 +26°C° 0.8 mm 4 mps 733 mmHg 69%
    13:00 +26°C° 0.8 mm 4 mps 733 mmHg 69%
    14:00 +26°C° 1.4 mm 4 mps 733 mmHg 70%
    15:00 +26°C° 1.4 mm 4 mps 733 mmHg 71%
    16:00 +26°C° 1.4 mm 4 mps 733 mmHg 72%
    17:00 +25°C° 0.6 mm 3 mps 732 mmHg 76%
    18:00 +24°C° 0.6 mm 3 mps 732 mmHg 80%
    19:00 +23°C° 0.6 mm 2 mps 732 mmHg 84%
    20:00 +21°C° 0.3 mm 2 mps 732 mmHg 87%
    21:00 +20°C° 0.3 mm 2 mps 732 mmHg 90%
    22:00 +19°C° 0.3 mm 2 mps 732 mmHg 93%
    23:00 +19°C° 0 mm 2 mps 732 mmHg 94%

    27 July, Friday

    Time Temperature Precipitation Wind Pressure Humidity
    00:00 +19°C° 0 mm 2 mps 732 mmHg 95%
    01:00 +19°C° 0 mm 2 mps 732 mmHg 96%
    02:00 +19°C° 0 mm 2 mps 732 mmHg 96%
    03:00 +19°C° 0 mm 2 mps 732 mmHg 97%
    04:00 +19°C° 0 mm 2 mps 732 mmHg 97%
    05:00 +20°C° 0.3 mm 2 mps 732 mmHg 95%
    06:00 +20°C° 0.3 mm 2 mps 732 mmHg 94%
    07:00 +21°C° 0.3 mm 2 mps 732 mmHg 92%
    08:00 +23°C° 0.6 mm 2 mps 732 mmHg 88%
    09:00 +24°C° 0.6 mm 2 mps 732 mmHg 84%
    10:00 +25°C° 0.6 mm 2 mps 732 mmHg 80%
    11:00 +26°C° 0.6 mm 2 mps 732 mmHg 77%
    12:00 +26°C° 0.6 mm 3 mps 732 mmHg 74%
    13:00 +27°C° 0.6 mm 3 mps 732 mmHg 72%
    14:00 +27°C° 0.2 mm 2 mps 732 mmHg 70%
    15:00 +27°C° 0.2 mm 2 mps 732 mmHg 69%
    16:00 +28°C° 0.2 mm 2 mps 731 mmHg 67%
    17:00 +27°C° 0.2 mm 2 mps 731 mmHg 72%
    18:00 +26°C° 0.2 mm 2 mps 731 mmHg 77%
    19:00 +25°C° 0.2 mm 1 mps 731 mmHg 82%
    20:00 +24°C° 0.5 mm 1 mps 731 mmHg 84%
    21:00 +23°C° 0.5 mm 1 mps 732 mmHg 86%
    22:00 +22°C° 0.5 mm 1 mps 732 mmHg 88%
    23:00 +21°C° 0 mm 1 mps 732 mmHg 88%

    28 July, Saturday

    Time Temperature Precipitation Wind Pressure Humidity
    00:00 +21°C° 0 mm 1 mps 731 mmHg 88%
    01:00 +21°C° 0 mm 1 mps 731 mmHg 88%
    02:00 +21°C° 0 mm 1 mps 731 mmHg 89%
    03:00 +20°C° 0 mm 1 mps 731 mmHg 89%
    04:00 +20°C° 0 mm 1 mps 731 mmHg 90%
    05:00 +21°C° 0 mm 1 mps 732 mmHg 86%
    06:00 +23°C° 0 mm 1 mps 732 mmHg 82%
    07:00 +24°C° 0 mm 1 mps 732 mmHg 79%
    08:00 +26°C° 0.3 mm 1 mps 732 mmHg 73%
    09:00 +27°C° 0.3 mm 1 mps 732 mmHg 68%
    10:00 +29°C° 0.3 mm 1 mps 732 mmHg 62%
    11:00 +29°C° 0.3 mm 1 mps 732 mmHg 60%
    12:00 +30°C° 0.3 mm 1 mps 732 mmHg 58%
    13:00 +30°C° 0.3 mm 1 mps 732 mmHg 55%
    14:00 +30°C° 0.3 mm 1 mps 732 mmHg 55%
    15:00 +30°C° 0.3 mm 1 mps 732 mmHg 55%
    16:00 +30°C° 0.3 mm 1 mps 732 mmHg 55%
    17:00 +29°C° 0.2 mm 1 mps 732 mmHg 61%
    18:00 +28°C° 0.2 mm 1 mps 732 mmHg 67%
    19:00 +26°C° 0.2 mm 1 mps 732 mmHg 73%
    20:00 +25°C° 0 mm 1 mps 733 mmHg 75%
    21:00 +24°C° 0 mm 1 mps 733 mmHg 77%
    22:00 +23°C° 0 mm 1 mps 733 mmHg 79%
    23:00 +23°C° 0 mm 1 mps 733 mmHg 81%
    Show more